Location: USNO
(38.9242°N, 77.0663°W)
Time: 18:22:35
(UTC-04:00)

Daily predictions for brighter satellites

Satellite Brightness Start Highest point End
(mag) Time Altitude Azimuth Time Altitude Azimuth Time Altitude Azimuth
BREEZE-M DEB (TANK) 3.9 20:40:40 10° WNW 20:44:24 65° SW 20:57:33 10° SE
Resurs 01 Rocket 4.1 20:47:41 10° SSW 20:51:15 23° W 20:54:50 10° NW
Cosmos 2228 4.1 20:49:44 10° NNE 20:53:37 29° ENE 20:57:28 10° SE
Lacrosse 5 rocket 2.5 20:50:31 10° WSW 20:54:12 47° NW 20:58:06 10° NNE
Cosmos 1025 Rocket 3.2 20:50:25 10° S 20:54:48 84° W 20:59:13 10° N
Cosmos 2098 Rocket 3.3 20:51:55 10° NNW 20:55:17 59° W 20:59:26 10° S
Cosmos 1743 2.7 20:51:29 10° N 20:55:19 70° E 20:59:07 10° SSE
Meteor 1-23 Rocket 4.4 20:49:57 10° S 20:55:25 54° E 21:00:58 10° NNE
Cosmos 2251 Rocket 3.7 20:51:18 10° SSW 20:56:37 85° WNW 21:02:00 10° NNE
Cosmos 1892 Rocket 3.6 20:58:33 10° S 21:02:59 81° E 21:07:28 10° N
ERS-1 Rocket 3.1 20:58:32 10° SSE 21:03:28 62° ENE 21:08:26 10° N
Cosmos 1603 4.4 20:59:04 10° SSE 21:03:59 32° ESE 21:08:53 10° NE
USA 234 4.3 21:00:03 10° E 21:05:57 37° NNE 21:11:50 10° NW
Envisat 3.8 21:02:53 10° SE 21:07:27 35° ENE 21:12:02 10° N
SJ-11-01 4.4 21:05:00 10° SSE 21:09:35 63° ENE 21:14:12 10° N
Meteor 2-9 Rocket 4.5 21:04:32 10° N 21:10:08 56° ENE 21:15:49 10° SSE
Cosmos 1110 Rocket 4.1 21:05:00 10° NNW 21:10:19 85° WSW 21:15:34 10° SSE
USA 186 3.0 21:10:27 10° SSW 21:13:11 35° W 21:15:45 10° NNW
Meteor 2-4 Rocket 3.8 21:09:17 10° S 21:15:06 83° E 21:21:04 10° N
Abrixas rocket 2.6 21:12:05 10° NW 21:15:29 61° NNE 21:18:26 13° ESE
Okean 2 3.4 21:13:15 10° S 21:17:26 82° E 21:21:38 10° N
Cosmos 2333 Rocket 4.4 21:12:35 10° WSW 21:17:28 30° WNW 21:22:25 10° N
BREEZE M DEB (TANK) 3.2 21:16:45 10° WNW 21:19:41 29° N 21:21:30 10° ENE
Cosmos 2297 3.9 21:14:32 10° NNW 21:20:15 74° WSW 21:25:56 10° SSE
Tsikada Rocket 4.4 21:17:44 10° SSE 21:23:49 47° E 21:29:53 10° NNE
Cosmos 1726 Rocket 4.3 21:23:39 10° NNW 21:28:00 53° W 21:32:17 10° S
Cosmos 1943 4.4 21:25:39 14° SE 21:28:46 21° E 21:32:52 10° NE
H-2A R/B 4.4 21:25:27 10° SSW 21:29:02 34° W 21:32:41 10° NNW
YAOGAN 6 4.3 21:27:50 15° ESE 21:29:42 21° ENE 21:32:31 10° NNE
ISS -2.4 21:29:50 10° SSW 21:32:40 28° SE 21:35:30 10° ENE
PSLV R/B 3.4 21:29:12 10° WSW 21:32:41 59° SSE 21:36:12 10° ENE
Cosmos 2285 Rocket 4.2 21:28:57 10° NNW 21:35:16 76° WSW 21:41:36 10° S
CZ-2C R/B 2.8 21:37:08 10° SSW 21:39:01 22° W 21:40:55 10° NW
Cosmos 1461 3.0 21:35:21 10° NNW 21:39:37 61° ENE 21:42:09 22° SE
SPOT 5 2.7 21:36:20 17° SSE 21:39:41 59° ENE 21:43:58 10° N
Cosmos 2058 Rocket 3.9 21:37:28 10° NNW 21:41:42 48° W 21:45:53 10° SSW
Cosmos 1464 Rocket 4.3 21:39:47 10° NNW 21:45:53 69° W 21:52:00 10° S
Cosmos 1602 Rocket 3.5 21:41:34 10° S 21:46:03 86° E 21:50:32 10° N
CZ-4 SHROUD 3.1 21:46:44 23° SSE 21:48:34 87° ENE 21:51:44 10° NNW
H-2A R/B 3.8 21:48:11 12° E 21:50:24 16° ENE 21:53:23 10° NNE
Aureole 2 Rocket 4.0 21:49:42 10° SW 21:53:27 40° WNW 21:56:54 10° N
GRACE-1 3.9 21:50:51 10° N 21:53:43 85° W 21:55:07 27° S
GRACE-2 3.9 21:51:17 10° N 21:54:10 85° W 21:55:33 27° S
Cosmos 1812 Rocket 3.5 21:53:35 10° N 21:57:58 70° E 22:00:27 25° SSE
SPOT 1/Viking Rocket 3.9 21:55:42 24° SE 21:58:38 50° ENE 22:03:37 10° N
Cosmos 1816 Rocket 4.5 21:54:28 11° S 22:00:39 72° E 22:06:59 10° NNE
Terra 3.6 22:00:40 15° E 22:02:18 18° ENE 22:05:31 10° NNE
Cosmos 2034 Rocket 4.4 21:58:09 10° NNW 22:04:28 67° W 22:10:30 11° S
Cosmos 1634 Rocket 4.4 21:59:53 10° N 22:05:49 46° ENE 22:08:55 26° SE
USA 245 4.3 22:05:43 24° SSE 22:09:27 67° ENE 22:14:45 10° N
H-2A R/B 3.8 22:05:58 10° SSW 22:09:37 28° W 22:13:21 10° NW
SeaSat 1 2.6 22:07:21 24° SSE 22:10:18 71° WSW 22:15:15 10° NNW
Atlas Centaur 2 3.4 22:03:11 10° WSW 22:10:24 43° S 22:15:35 21° ESE
ARGOS 3.4 22:10:34 29° SE 22:13:13 56° ENE 22:18:33 10° N
Cosmos 2369 Rocket 2.9 22:08:40 10° N 22:14:01 41° ENE 22:16:29 27° ESE
CZ-4C R/B 4.3 22:12:56 31° ESE 22:14:03 36° ENE 22:17:51 10° N
DEBRIS 2.6 22:11:32 10° WNW 22:15:23 44° SW 22:15:34 43° SSW
CZ-4B R/B 3.5 22:13:13 10° NNE 22:18:19 85° WNW 22:22:53 14° SSW
NAVSTAR 52 R/B(PAM-D 4.2 22:19:06 10° W 22:23:25 73° SSW 22:23:41 67° SSE
NOAA 11 4.2 22:22:44 34° SE 22:25:06 65° ENE 22:30:28 10° N
COSMOS 2455 3.0 22:20:46 10° SSW 22:26:46 76° WNW 22:32:49 10° NNE
Milstar 3 Cent rocket 4.1 22:24:17 10° WSW 22:26:59 13° SSW 22:27:55 12° SSW
Meteor 2-12 Rocket 4.5 22:22:49 10° N 22:28:55 77° W 22:32:34 25° S
Cosmos 1953 4.2 22:31:56 10° NNE 22:34:19 17° ENE 22:34:19 17° ENE
Cosmos 1953 Rocket 3.5 22:35:33 51° SSE 22:36:30 70° E 22:40:55 10° NNE
ATLAS 3B R/B 2.9 22:29:23 10° SSW 22:37:00 67° ESE 22:44:30 10° NE
Meteor 1-22 Rocket 4.3 22:32:33 10° N 22:38:06 65° E 22:40:01 41° SE
Cosmos 2346 Rocket 4.4 22:36:44 24° S 22:40:41 86° W 22:46:52 10° N
IGS 5A 4.2 22:43:55 38° ENE 22:44:05 38° ENE 22:47:57 10° N
Cosmos 1066 Rocket 4.3 22:43:48 26° SSW 22:47:06 77° W 22:52:55 10° N
USA 234 3.3 22:45:49 37° SSE 22:48:36 73° SW 22:55:11 10° NW
Cosmos 407 Rocket 3.4 22:49:25 44° S 22:51:07 77° ESE 22:56:22 10° NNE
Cosmos 1346 Rocket 2.9 22:56:00 62° WSW 22:56:23 67° W 23:00:17 10° N
DELTA 2 DEB (DPAF) 4.2 22:56:14 57° SSW 22:57:02 71° WSW 23:01:32 10° NNW
SL-23 DEB 4.1 22:51:56 10° SW 22:58:11 66° SE 23:01:57 10° ENE
Cosmos-2242 3.7 22:54:18 10° N 22:58:21 42° ENE 22:58:21 42° ENE
Lacrosse 4 Rocket 1.2 22:59:11 85° NNE 22:59:11 85° NNE 23:03:11 10° NNE
SL-24 R/B 4.4 22:54:57 10° N 22:59:53 74° E 23:00:47 59° SSE
ISS -1.4 23:06:06 10° W 23:09:03 30° NNW 23:12:00 10° NE
Cosmos 1954 Rocket 3.9 23:09:47 63° SE 23:10:08 65° ESE 23:15:24 10° NNE
Cosmos 1758 Rocket 4.0 23:10:06 50° WSW 23:10:50 58° W 23:15:10 10° N
USA 238 DEB 3.9 23:10:59 46° SE 23:11:45 48° ESE 23:18:28 10° NE
USA 238 3.9 23:11:08 46° SE 23:11:51 47° ESE 23:18:33 10° NE
Cosmos 1943 3.9 23:07:20 12° SW 23:12:22 51° WNW 23:17:55 10° NNE
Cosmos 1842 3.6 23:13:33 59° NNE 23:13:33 59° NNE 23:16:48 10° N
Meteor 1-21 4.3 23:11:19 45° SSW 23:13:12 80° W 23:19:03 10° N
CARTOSAT-1 3.5 23:14:30 78° WSW 23:14:30 78° WSW 23:18:51 10° NNW
Cosmos 1758 4.0 23:15:42 10° N 23:19:02 48° NE 23:19:02 48° NE
Spot 4 3.7 23:22:16 84° S 23:22:25 88° WSW 23:27:14 10° NNW
Cosmos 1943 Rocket 2.3 23:17:21 10° NNW 23:22:50 58° ENE 23:23:31 54° E
Landsat 7 4.4 23:23:17 44° WSW 23:23:52 46° W 23:28:27 10° NNW
H-2A R/B 2.2 23:28:49 55° SW 23:29:17 57° W 23:34:15 10° NNW
Cosmos 1092 Rocket 4.1 23:33:02 53° ESE 23:33:37 55° E 23:39:44 10° NNE
Cosmos 1766 4.4 23:30:59 10° NNW 23:34:21 39° WNW 23:34:21 39° WNW
Terra 2.4 23:39:33 46° WSW 23:39:40 46° W 23:44:16 10° NNW
Cosmos 1842 Rocket 4.1 23:38:03 10° N 23:41:34 53° NNE 23:41:34 53° NNE
Cosmos 1570 Rocket 4.2 23:38:11 10° NNW 23:43:31 62° ENE 23:43:34 62° ENE
Cosmos 1850 Rocket 4.2 23:46:11 61° ENE 23:46:11 61° ENE 23:50:46 10° NNE
Nadezhda 4 Rocket 3.9 23:45:01 64° SSW 23:46:06 87° W 23:52:28 10° N
CZ-4C R/B 3.9 23:54:53 20° ENE 23:54:53 20° ENE 23:57:15 10° NE
